Location: Saint Mary
(48.7436°N, 113.4291°W)
Time: 11:47:56
(UTC+00:00)

ARIANE 6 FM1 Upper Stage - Pass Details

Date: 15 December 2025
Orbit: 522 x 610 km, 62.0° (Epoch: 20 January)

Event Time Altitude Azimuth Distance (km) Brightness Sun altitude
Rises 14:30:23 0° 230° (SW) 2,684 5.9 -7.9°
Reaches altitude 10° 14:32:37 10° 232° (SW) 1,785 5.0 -7.6°
Maximum altitude 14:36:36 68° 316° (NW) 572 2.5 -7.0°
Drops below altitude 10° 14:40:33 10° 40° (NE) 1,770 5.4 -6.4°
Sets 14:42:45 0° 43° (NE) 2,659 6.3 -6.1°
